NILESAT 301

Last updated on Fri Oct 04 2024 00:02:42 GMT+0000 (Coordinated Universal Time)

1 52817U 22061A 24277.29910501 -.00000053 00000+0 00000+0 0 9990 2 52817 0.0257 337.3597 0002051 221.0231 274.8074 1.00271758 8501
UTC large
Height (km)
Speed (km/s)
/
Latitude / Longitude
Inclination (degrees)
Orbital Period (minutes)
Azimuth
Elevation
Range (km)
Doppler Factor

Next 0 passes for location: London (51.5072 / 0.1276)

Sorry there are no passes over London.